Regional Weather Roundup
Issued by NWS

Home | Current Version | Previous Version | Graphics & Text | Print | Product List | Glossary On
Versions: 1 2 3 4 5 6 7 8 9 10 11 12 13 14 15 16 17 18 19 20 21 22 23 24 25 26 27 28 29 30 31 32 33 34 35 36 37 38 39 40 41 42 43 44 45 46 47 48 49 50
964
ASUS45 KBOI 120110
RWRID

IDAHO REGIONAL WEATHER ROUNDUP
NATIONAL WEATHER SERVICE BOISE ID
600 PM MST THU FEB 11 2016

NOTE: "FAIR" INDICATES FEW OR NO CLOUDS BELOW 12000 FEET
WITH NO SIGNIFICANT WEATHER AND/OR OBSTRUCTIONS TO VISIBILITY

IDZ012-014-120200-
SOUTHWEST IDAHO


CITY           SKY/WX    TMP DP  RH WIND       PRES   REMARKS
BOISE          CLOUDY    44  35  70 SW9       30.31F
CALDWELL       CLOUDY    44  34  67 SW6       30.35R
$$

IDZ016-017-120200-
SOUTHCENTRAL IDAHO


CITY           SKY/WX    TMP DP  RH WIND       PRES   REMARKS
BURLEY         CLOUDY    37  30  75 NE9       30.32S WCI  30
JEROME         CLOUDY    34  28  79 NE20      30.33S WCI  23
TWIN FALLS     CLOUDY    36  32  85 E8        30.32F WCI  30
$$

IDZ019>023-120200-
SOUTHEAST IDAHO


CITY           SKY/WX    TMP DP  RH WIND       PRES   REMARKS
IDAHO FALLS    CLOUDY    25  21  85 CALM      30.39F
POCATELLO      CLOUDY    32  25  75 E5        30.39R WCI  27
REXBURG        CLOUDY    31  25  78 CALM      30.38S
$$

IDZ006-010-011-018-031-032-120200-
CENTRAL IDAHO MOUNTAINS


CITY           SKY/WX    TMP DP  RH WIND       PRES   REMARKS
MCCALL         CLOUDY    37  31  78 NE7       30.28S WCI  32
HAILEY         PTCLDY    36  28  75 NW5       30.37S WCI  32
STANLEY          N/A     39  26  59 CALM      30.33S
SALMON         CLOUDY    30  21  69 CALM      30.35S
CHALLIS        CLOUDY    31  24  75 N3        30.33R
$$

IDZ002-004-006-007-026-120200-
NORTHERN IDAHO


CITY           SKY/WX    TMP DP  RH WIND       PRES   REMARKS
LEWISTON       CLOUDY    50  39  66 E6        30.21F
LOWELL           N/A     44  39  82 CALM      30.27S
COEUR D`ALENE  CLOUDY    43  36  75 NE12      30.23F
MULLAN PASS    LGT RAIN  35  30  82 CALM      30.25S
$$




USA.gov is the U.S. government's official web portal to all federal, state and local government web resources and services.